[[{"header":{"parameterUnit":"m.s-1","parameterCategory":1,"la1":30.2991,"la2":30.254,"lo1":-89.0895,"lo2":-89.0444,"dy":0.0017,"dx":0.0017,"nx":28,"ny":28,"refTime":"2024-07-08T09:00:00:Z","depth":0,"parameterNumber":2,"parameterNumberName":"U-component_of_WINDS"},"data":[0,0,0,0,0,0,0,0,0,0,0,0,0,0,0,0,0,0,0,0,0,0,0,0,0,0,0,0,0,0,0,0,0,0,0,0,0,0,0,0,0,0,0,0,0,0,0,0,0,0,0,0,0,0,0,0,0,0,-2.9027,-2.9026,0,-2.8982,-2.8981,-2.8981,-2.8927,-2.8926,-2.8925,-2.8925,-2.8877,-2.8877,-2.8876,0,0,0,0,0,0,0,0,0,0,0,0,0,-2.9065,-2.9065,-2.9027,-2.9026,-2.9025,-2.8982,-2.8981,-2.8981,-2.8927,-2.8926,-2.8925,-2.8924,-2.8878,-2.8877,-2.8876,0,0,0,0,0,0,0,0,0,0,0,0,0,-2.9037,-2.9065,-2.9027,-2.8994,-2.899,-2.8982,-2.8981,-2.8981,-2.8927,-2.8926,-2.8925,-2.8924,-2.8878,-2.8877,-2.8876,-2.8897,0,0,-2.8874,-2.8874,0,0,0,0,0,0,0,0,-2.9039,-2.9036,-2.8999,-2.8996,-2.8992,-2.8959,-2.8978,-2.8952,-2.8928,-2.8951,-2.8925,-2.8923,-2.8905,-2.8902,-2.8897,-2.8894,-2.8892,-2.8874,-2.8874,-2.8873,-2.8873,0,0,0,0,0,0,0,-2.9041,-2.9038,-2.9009,-2.8999,-2.8994,-2.8981,-2.8976,-2.8973,-2.8936,-2.8949,-2.8945,-2.8941,-2.8903,-2.8897,-2.8895,-2.8892,-2.8874,-2.8873,-2.8873,-2.8873,-2.8904,-2.8906,0,0,0,0,0,0,-2.9048,-2.904,-2.901,-2.9007,-2.9013,-2.8981,-2.8975,-2.8971,-2.8936,-2.8929,-2.8942,-2.8938,-2.8899,-2.8896,-2.8893,-2.8914,-2.8873,-2.8873,-2.8872,-2.8903,-2.8905,-2.8906,0,0,0,0,0,0,-2.9049,-2.9046,-2.9012,-2.9022,-2.9017,-2.8982,-2.8977,-2.897,-2.8965,-2.893,-2.8923,-2.8943,-2.8898,-2.8894,-2.8896,-2.8912,-2.8872,-2.8872,-2.8902,-2.8904,-2.8905,-2.8957,0,0,0,0,0,0,-2.905,-2.9047,-2.9054,-2.9023,-2.9017,-2.9016,-2.8978,-2.897,-2.8964,-2.8959,-2.8929,-2.8923,-2.8897,-2.8898,-2.8896,-2.891,-2.8871,-2.89,-2.8903,-2.8905,-2.8954,-2.8961,-2.8966,0,0,0,0,0,-2.9052,-2.907,-2.9054,-2.9051,-2.9025,-2.9017,-2.9013,-2.8984,-2.8965,-2.8972,-2.895,-2.8924,-2.8911,-2.8898,-2.8896,-2.891,-2.8899,-2.8902,-2.8905,-2.8951,-2.8959,-2.8966,0,0,0,0,0,0,-2.9102,-2.9065,-2.9048,-2.9056,-2.904,-2.9008,-2.9016,-2.8993,-2.8982,-2.8978,-2.8941,-2.8935,-2.8941,-2.8926,-2.8913,-2.8928,-2.8901,-2.8904,-2.8937,-2.8945,-2.8951,-2.8954,-2.887,0,0,0,0,0,-2.9115,-2.9112,-2.9079,-2.909,-2.9083,-2.9051,-2.9046,-2.9025,-2.9007,-2.9,-2.8978,-2.8961,-2.8953,-2.8949,-2.8939,-2.8952,-2.8945,-2.8961,-2.8967,-2.8973,-2.8975,-2.898,-2.8987,-2.8916,-2.8916,-2.8916,0,0,-2.9139,-2.9119,-2.9119,-2.9099,-2.9084,-2.9082,-2.9045,-2.9044,-2.9041,-2.8999,-2.8999,-2.8984,-2.8962,-2.897,-2.8972,-2.8958,-2.8993,-2.8976,-2.8981,-2.898,-2.8984,-2.8991,-2.8997,-2.8918,-2.8917,-2.8917,0,0,-2.9183,-2.9168,-2.9174,-2.9161,-2.9139,-2.9118,-2.9121,-2.9092,-2.908,-2.908,-2.9049,-2.9046,-2.9033,-2.9019,-2.901,-2.9052,-2.9027,-2.905,-2.9082,-2.9088,-2.9093,-2.9098,-2.9112,-2.9117,-2.9052,-2.9053,-2.9053,0,-2.9216,-2.9211,-2.9181,-2.9181,-2.9174,-2.9137,-2.9144,-2.9132,-2.9109,-2.9104,-2.9089,-2.9073,-2.9056,-2.906,-2.907,-2.9065,-2.9065,-2.9052,-2.9095,-2.91,-2.9104,-2.9116,-2.9122,-2.9055,-2.9055,-2.9055,-2.9054,0,-2.9253,-2.925,-2.9258,-2.9237,-2.9231,-2.9235,-2.9205,-2.9202,-2.9182,-2.9163,-2.9164,-2.9144,-2.913,-2.913,-2.911,-2.9131,-2.9123,-2.9102,-2.9073,-2.9114,-2.9125,-2.913,-2.9059,-2.9058,-2.9058,-2.9057,0,0,-2.9324,-2.9288,-2.9291,-2.9282,-2.9256,-2.9253,-2.9256,-2.9244,-2.9242,-2.9228,-2.9228,-2.922,-2.9201,-2.9191,-2.917,-2.9176,-2.9209,-2.9154,-2.9153,-2.9164,-2.9231,-2.9245,-2.9251,-2.9193,-2.9194,-2.9195,-2.9232,0,-2.9362,-2.9364,-2.9338,-2.9347,-2.9344,-2.931,-2.9313,-2.9297,-2.928,-2.9275,-2.9256,-2.925,-2.9226,-2.922,-2.9225,-2.9204,-2.9221,-2.9201,-2.9193,-2.9193,-2.9197,-2.9257,-2.9272,-2.9308,-2.9236,-2.9237,-2.9238,0,-2.9405,-2.9394,-2.9404,-2.9379,-2.9377,-2.9379,-2.9366,-2.9362,-2.9344,-2.9331,-2.9322,-2.9298,-2.9299,-2.9274,-2.9275,-2.9262,-2.9257,-2.9247,-2.9248,-2.9244,-2.9216,-2.9254,-2.9319,-2.9324,-2.9244,-2.9244,-2.9243,0,-2.9455,-2.9443,-2.9447,-2.944,-2.9411,-2.9414,-2.9402,-2.9384,-2.9378,-2.9367,-2.9363,-2.9352,-2.9345,-2.9337,-2.9311,-2.9296,-2.9315,-2.9288,-2.9304,-2.9304,-2.9307,-2.9307,-2.9371,-2.9308,-2.9308,-2.9308,-2.9307,0,-2.9499,-2.9505,-2.9469,-2.9471,-2.9478,-2.9449,-2.9456,-2.9441,-2.9425,-2.9424,-2.9395,-2.9394,-2.9361,-2.9356,-2.9336,-2.934,-2.9337,-2.9327,-2.9321,-2.9328,-2.9329,-2.9323,-2.9319,-2.9309,-2.9309,-2.9308,-2.9308,0,-2.9554,-2.953,-2.9532,-2.9506,-2.95,-2.9506,-2.9483,-2.9484,-2.9466,-2.9465,-2.9463,-2.9435,-2.9428,-2.9402,-2.939,-2.9376,-2.9386,-2.9376,-2.9392,-2.9387,-2.9404,-2.9403,-2.9465,-2.9471,-2.9406,-2.9407,-2.9407,0,-2.9583,-2.9588,-2.9562,-2.9559,-2.9549,-2.9545,-2.954,-2.9512,-2.9507,-2.9489,-2.9492,-2.9484,-2.9475,-2.9467,-2.9445,-2.9435,-2.9424,-2.9446,-2.9422,-2.9429,-2.9422,-2.9422,-2.9422,-2.9451,-2.9452,-2.9452,-2.9453,0,-2.9636,-2.9625,-2.9618,-2.9607,-2.9602,-2.9592,-2.9581,-2.958,-2.9549,-2.9546,-2.9539,-2.9533,-2.9521,-2.9512,-2.95,-2.9487,-2.9465,-2.9461,-2.9464,-2.9471,-2.9479,-2.9474,-2.9404,-2.9459,-2.9459,-2.9458,-2.9458,-2.9458,-2.9678,-2.9681,-2.9663,-2.9657,-2.9646,-2.9636,-2.9636,-2.9619,-2.9613,-2.9601,-2.9585,-2.9581,-2.9564,-2.9545,-2.9535,-2.9531,-2.9518,-2.9523,-2.9524,-2.9525,-2.9528,-2.9482,-2.9529,-2.9528,-2.9528,-2.9528,-2.9528,0,-2.9729,-2.9717,-2.9711,-2.9697,-2.9692,-2.9673,-2.966,-2.9657,-2.9653,-2.964,-2.9633,-2.9626,-2.9619,-2.9597,-2.9587,-2.9589,-2.9578,-2.9587,-2.9585,-2.9583,-2.954,-2.9538,-2.9595,-2.9595,-2.9595,-2.9595,-2.9595,-2.9595,-2.9754,-2.9758,-2.9744,-2.9742,-2.9729,-2.9725,-2.9719,-2.971,-2.97,-2.9693,-2.9687,-2.9674,-2.9657,-2.9646,-2.9639,-2.9633,-2.963,-2.9642,-2.9632,-2.9592,-2.9586,-2.958,-2.9577,-2.9642,-2.9642,-2.9675,-2.9675,-2.9675]},{"header":{"parameterUnit":"m.s-1","parameterCategory":1,"la1":30.2991,"la2":30.254,"lo1":-89.0895,"lo2":-89.0444,"dy":0.0017,"dx":0.0017,"nx":28,"ny":28,"refTime":"2024-07-08T09:00:00:Z","depth":0,"parameterNumber":3,"parameterNumberName":"V-component_of_WINDS"},"data":[0,0,0,0,0,0,0,0,0,0,0,0,0,0,0,0,0,0,0,0,0,0,0,0,0,0,0,0,0,0,0,0,0,0,0,0,0,0,0,0,0,0,0,0,0,0,0,0,0,0,0,0,0,0,0,0,0,0,5.1406,5.1406,0,5.142,5.1421,5.1421,5.1436,5.1436,5.1436,5.1437,5.1448,5.1448,5.1448,0,0,0,0,0,0,0,0,0,0,0,0,0,5.139,5.139,5.1406,5.1406,5.1407,5.142,5.1421,5.1421,5.1436,5.1436,5.1436,5.1437,5.1448,5.1448,5.1448,0,0,0,0,0,0,0,0,0,0,0,0,0,5.14,5.139,5.1406,5.1416,5.1417,5.142,5.1421,5.1421,5.1436,5.1436,5.1437,5.1437,5.1447,5.1448,5.1448,5.1442,0,0,5.1448,5.1448,0,0,0,0,0,0,0,0,5.1399,5.14,5.1414,5.1415,5.1416,5.1427,5.1419,5.1428,5.1436,5.1429,5.1437,5.1437,5.144,5.1441,5.1443,5.1442,5.1443,5.1448,5.1448,5.1448,5.1448,0,0,0,0,0,0,0,5.1399,5.14,5.1412,5.1414,5.1416,5.1419,5.1421,5.1421,5.1432,5.1429,5.143,5.1432,5.1441,5.1443,5.1443,5.1443,5.1448,5.1448,5.1448,5.1448,5.1439,5.1439,0,0,0,0,0,0,5.1397,5.1399,5.1411,5.1412,5.1409,5.1419,5.1421,5.1423,5.1432,5.1434,5.1432,5.1433,5.1442,5.1443,5.1443,5.1438,5.1448,5.1448,5.1448,5.144,5.1439,5.1439,0,0,0,0,0,0,5.1396,5.1398,5.1411,5.1406,5.1408,5.1419,5.1421,5.1423,5.1425,5.1434,5.1436,5.1432,5.1442,5.1443,5.1443,5.1438,5.1448,5.1448,5.144,5.144,5.1439,5.1426,0,0,0,0,0,0,5.1396,5.1397,5.1396,5.1406,5.1408,5.141,5.1421,5.1423,5.1426,5.1427,5.1434,5.1436,5.1443,5.1442,5.1443,5.1439,5.1449,5.1441,5.144,5.1439,5.1427,5.1425,5.1424,0,0,0,0,0,5.1395,5.139,5.1395,5.1397,5.1406,5.141,5.1411,5.142,5.1425,5.1423,5.1429,5.1436,5.1439,5.1442,5.1443,5.1439,5.1441,5.144,5.1439,5.1428,5.1426,5.1424,0,0,0,0,0,0,5.1377,5.1392,5.1398,5.1396,5.1402,5.1412,5.141,5.1417,5.1421,5.1422,5.1431,5.1433,5.1431,5.1435,5.1438,5.1434,5.1441,5.144,5.1432,5.143,5.1428,5.1427,5.1449,0,0,0,0,0,5.1374,5.1376,5.1388,5.1385,5.1388,5.1399,5.1401,5.1407,5.1413,5.1415,5.1421,5.1426,5.1428,5.1429,5.1432,5.1428,5.143,5.1425,5.1424,5.1423,5.1422,5.1421,5.1419,5.1437,5.1437,5.1437,0,0,5.1365,5.1373,5.1374,5.1382,5.1387,5.139,5.1401,5.1402,5.1403,5.1415,5.1415,5.142,5.1426,5.1424,5.1423,5.1427,5.1418,5.1422,5.1421,5.142,5.142,5.1419,5.1417,5.1436,5.1436,5.1436,0,0,5.1351,5.1357,5.1356,5.1362,5.137,5.1378,5.1378,5.1388,5.1392,5.1393,5.1402,5.1404,5.1407,5.1411,5.1414,5.1403,5.141,5.1404,5.1395,5.1395,5.1393,5.1392,5.1389,5.1388,5.1403,5.1403,5.1403,0,5.1338,5.1343,5.1354,5.1356,5.1359,5.1372,5.1371,5.1376,5.1384,5.1386,5.1391,5.1396,5.1401,5.1401,5.1399,5.14,5.14,5.1403,5.1393,5.1392,5.1391,5.1388,5.1387,5.1402,5.1402,5.1402,5.1403,0,5.1328,5.1331,5.1329,5.1339,5.1342,5.1342,5.1354,5.1356,5.1363,5.1369,5.1371,5.1377,5.1382,5.1382,5.1388,5.1383,5.1385,5.1391,5.1398,5.1388,5.1386,5.1385,5.1401,5.1402,5.1402,5.1402,0,0,5.1301,5.1319,5.1318,5.1324,5.1335,5.1337,5.1338,5.1344,5.1346,5.1352,5.1353,5.1357,5.1363,5.1366,5.1372,5.1372,5.1364,5.1378,5.1378,5.1375,5.136,5.1356,5.1354,5.1369,5.1368,5.1368,5.136,0,5.1289,5.1293,5.1304,5.1304,5.1308,5.1321,5.1322,5.1329,5.1335,5.1339,5.1346,5.1349,5.1356,5.1358,5.1358,5.1365,5.1361,5.1366,5.1369,5.1369,5.1368,5.1353,5.1348,5.1339,5.1359,5.1359,5.1358,0,5.1275,5.1282,5.1283,5.1296,5.1297,5.1298,5.1306,5.1309,5.1317,5.1322,5.1327,5.1335,5.1337,5.1344,5.1346,5.1349,5.1351,5.1355,5.1355,5.1356,5.1363,5.1353,5.1337,5.1336,5.1357,5.1357,5.1357,0,5.1256,5.1265,5.1268,5.1272,5.1286,5.1287,5.1293,5.1302,5.1305,5.1312,5.1314,5.132,5.1323,5.1327,5.1336,5.1341,5.1338,5.1346,5.1342,5.1342,5.1341,5.134,5.1325,5.1342,5.1342,5.1342,5.1342,0,5.1241,5.1241,5.126,5.1261,5.1262,5.1275,5.1275,5.1282,5.129,5.1293,5.1304,5.1306,5.1319,5.1322,5.133,5.1331,5.1332,5.1336,5.1338,5.1335,5.1335,5.1337,5.1337,5.1342,5.1342,5.1342,5.1342,0,5.1219,5.1232,5.1235,5.125,5.1254,5.1254,5.1266,5.1268,5.1276,5.128,5.1281,5.1294,5.1299,5.1309,5.1316,5.1321,5.1321,5.1324,5.1318,5.132,5.1316,5.1316,5.13,5.1299,5.1317,5.1317,5.1317,0,5.1209,5.121,5.1225,5.1229,5.1235,5.124,5.1245,5.1258,5.1262,5.1272,5.1273,5.1279,5.1285,5.1292,5.1301,5.1307,5.1311,5.1305,5.1311,5.1309,5.1311,5.1311,5.1312,5.1303,5.1303,5.1303,5.1303,0,5.1189,5.1196,5.1203,5.1212,5.1217,5.1224,5.1232,5.1234,5.1249,5.1253,5.1259,5.1264,5.1273,5.1279,5.1286,5.1292,5.13,5.1301,5.13,5.1297,5.1294,5.1296,5.1315,5.1301,5.1301,5.1301,5.1301,5.1301,5.1173,5.1175,5.1187,5.1194,5.1202,5.121,5.1213,5.1223,5.1228,5.1237,5.1245,5.125,5.126,5.1271,5.1277,5.1281,5.1285,5.1284,5.1284,5.1283,5.1282,5.1294,5.1282,5.1282,5.1282,5.1282,5.1283,0,5.1155,5.1164,5.117,5.1182,5.1188,5.1197,5.1207,5.1211,5.1216,5.1225,5.1231,5.1239,5.1245,5.1256,5.1263,5.1265,5.1268,5.1266,5.1266,5.1267,5.1278,5.1278,5.1263,5.1263,5.1263,5.1263,5.1263,5.1263,5.1146,5.115,5.1159,5.1167,5.1176,5.1183,5.1187,5.1195,5.1202,5.1211,5.1217,5.1224,5.1234,5.1242,5.1249,5.1252,5.1254,5.125,5.1254,5.1264,5.1266,5.1268,5.1268,5.1251,5.1251,5.1243,5.1243,5.1243]}]]